• In Netherlands
  • List of Countries
  • For 7 days
  • Water Temperature
  • Satellite Maps
  • Weather Map
  • Weather Widgets
  • user-avatar
    Login

    Hourly Weather Mayrhofen

    Today, 29 April, Saturday

    Time Temperature Precipitation Wind Pressure Humidity
    00:00 -9°C° 0.1 mm 2 mps 612 mmHg 96%
    01:00 -8°C° 0 mm 2 mps 613 mmHg 94%
    02:00 -8°C° 0 mm 2 mps 613 mmHg 94%
    03:00 -8°C° 0 mm 1 mps 613 mmHg 93%
    04:00 -8°C° 0 mm 1 mps 612 mmHg 93%
    05:00 -7°C° 0 mm 1 mps 613 mmHg 92%
    06:00 -4°C° 0 mm 1 mps 614 mmHg 90%
    07:00 -2°C° 0 mm 1 mps 615 mmHg 88%
    08:00 -1°C° 0 mm 1 mps 615 mmHg 85%
    09:00 +1°C° 0 mm 1 mps 615 mmHg 82%
    10:00 +1°C° 0 mm 0 mps 616 mmHg 79%
    11:00 +2°C° 0 mm 0 mps 616 mmHg 79%
    12:00 +4°C° 0 mm 1 mps 616 mmHg 78%
    13:00 +5°C° 0 mm 1 mps 616 mmHg 78%
    14:00 +5°C° 0 mm 1 mps 616 mmHg 79%
    15:00 +5°C° 0 mm 1 mps 615 mmHg 80%
    16:00 +5°C° 0 mm 1 mps 615 mmHg 81%
    17:00 +2°C° 0 mm 1 mps 614 mmHg 86%
    18:00 0°C° 0 mm 1 mps 613 mmHg 90%
    19:00 -3°C° 0 mm 0 mps 613 mmHg 94%
    20:00 -3°C° 0 mm 1 mps 612 mmHg 95%
    21:00 -3°C° 0 mm 1 mps 612 mmHg 96%
    22:00 -4°C° 0 mm 1 mps 612 mmHg 97%
    23:00 -4°C° 0 mm 1 mps 613 mmHg 96%

    Tomorrow, 30 April, Sunday

    Time Temperature Precipitation Wind Pressure Humidity
    00:00 -4°C° 0 mm 1 mps 613 mmHg 96%
    01:00 -3°C° 0 mm 1 mps 613 mmHg 96%
    02:00 -3°C° 0 mm 1 mps 613 mmHg 96%
    03:00 -3°C° 0 mm 1 mps 613 mmHg 96%
    04:00 -5°C° 0 mm 2 mps 613 mmHg 96%
    05:00 -4°C° 0 mm 2 mps 613 mmHg 93%
    06:00 -2°C° 0 mm 2 mps 614 mmHg 91%
    07:00 +1°C° 0 mm 1 mps 614 mmHg 89%
    08:00 +2°C° 0 mm 2 mps 615 mmHg 85%
    09:00 +4°C° 0 mm 2 mps 615 mmHg 82%
    10:00 +5°C° 0 mm 2 mps 615 mmHg 78%
    11:00 +6°C° 0 mm 2 mps 615 mmHg 75%
    12:00 +7°C° 0 mm 2 mps 615 mmHg 72%
    13:00 +8°C° 0 mm 2 mps 615 mmHg 69%
    14:00 +8°C° 0 mm 2 mps 614 mmHg 69%
    15:00 +8°C° 0 mm 2 mps 614 mmHg 68%
    16:00 +8°C° 0 mm 2 mps 614 mmHg 68%
    17:00 +6°C° 0 mm 2 mps 613 mmHg 76%
    18:00 +4°C° 0 mm 2 mps 612 mmHg 84%
    19:00 +2°C° 0 mm 2 mps 611 mmHg 91%
    20:00 +1°C° 0 mm 2 mps 611 mmHg 93%
    21:00 -1°C° 0 mm 2 mps 612 mmHg 94%
    22:00 -1°C° 0 mm 3 mps 612 mmHg 95%
    23:00 -1°C° 0 mm 3 mps 611 mmHg 94%

    Day after tomorrow, 1 May, Monday

    Time Temperature Precipitation Wind Pressure Humidity
    00:00 -2°C° 0 mm 3 mps 611 mmHg 94%
    01:00 -2°C° 0 mm 3 mps 611 mmHg 94%
    02:00 -2°C° 0 mm 2 mps 611 mmHg 94%
    03:00 -3°C° 0 mm 2 mps 610 mmHg 93%
    04:00 -3°C° 0 mm 2 mps 610 mmHg 93%
    05:00 -2°C° 0 mm 2 mps 611 mmHg 89%
    06:00 -1°C° 0 mm 2 mps 611 mmHg 85%
    07:00 +1°C° 0 mm 2 mps 612 mmHg 81%
    08:00 +3°C° 0 mm 2 mps 612 mmHg 78%
    09:00 +4°C° 0 mm 2 mps 613 mmHg 74%
    10:00 +5°C° 0 mm 2 mps 614 mmHg 70%
    11:00 +5°C° 0.9 mm 2 mps 614 mmHg 76%
    12:00 +4°C° 0.9 mm 2 mps 614 mmHg 82%
    13:00 +3°C° 0.9 mm 2 mps 614 mmHg 89%
    14:00 +2°C° 2.2 mm 2 mps 613 mmHg 91%
    15:00 +2°C° 2.2 mm 1 mps 613 mmHg 93%
    16:00 +1°C° 2.2 mm 1 mps 613 mmHg 96%
    17:00 0°C° 1.7 mm 1 mps 613 mmHg 96%
    18:00 -2°C° 1.7 mm 2 mps 613 mmHg 97%
    19:00 -3°C° 1.7 mm 2 mps 613 mmHg 97%
    20:00 -4°C° 1 mm 2 mps 614 mmHg 97%
    21:00 -4°C° 1 mm 2 mps 614 mmHg 97%
    22:00 -4°C° 1 mm 2 mps 614 mmHg 97%
    23:00 -5°C° 0.5 mm 2 mps 614 mmHg 97%

    2 May, Tuesday

    Time Temperature Precipitation Wind Pressure Humidity
    00:00 -3°C° 0.5 mm 1 mps 614 mmHg 97%
    01:00 -3°C° 0.5 mm 1 mps 614 mmHg 97%
    02:00 -4°C° 0.1 mm 1 mps 614 mmHg 97%
    03:00 -6°C° 0.1 mm 1 mps 613 mmHg 97%
    04:00 -8°C° 0.1 mm 1 mps 612 mmHg 97%
    05:00 -6°C° 0 mm 1 mps 613 mmHg 96%
    06:00 -3°C° 0 mm 1 mps 614 mmHg 96%
    07:00 -1°C° 0 mm 1 mps 614 mmHg 95%
    08:00 0°C° 0 mm 1 mps 614 mmHg 95%
    09:00 +2°C° 0 mm 1 mps 615 mmHg 95%
    10:00 +3°C° 0 mm 1 mps 615 mmHg 96%
    11:00 +3°C° 0 mm 2 mps 615 mmHg 95%
    12:00 +4°C° 0 mm 2 mps 615 mmHg 94%
    13:00 +4°C° 0 mm 2 mps 615 mmHg 93%
    14:00 +4°C° 0.1 mm 2 mps 615 mmHg 92%
    15:00 +5°C° 0.1 mm 2 mps 615 mmHg 92%
    16:00 +6°C° 0.1 mm 1 mps 615 mmHg 91%
    17:00 +5°C° 0.1 mm 1 mps 615 mmHg 93%
    18:00 +4°C° 0.1 mm 1 mps 614 mmHg 95%
    19:00 +3°C° 0.1 mm 1 mps 614 mmHg 96%
    20:00 +2°C° 0.1 mm 1 mps 614 mmHg 96%
    21:00 +1°C° 0.1 mm 1 mps 614 mmHg 96%
    22:00 -1°C° 0.1 mm 1 mps 614 mmHg 96%
    23:00 -1°C° 0 mm 1 mps 614 mmHg 96%

    3 May, Wednesday

    Time Temperature Precipitation Wind Pressure Humidity
    00:00 -1°C° 0 mm 1 mps 613 mmHg 95%
    01:00 -3°C° 0 mm 2 mps 613 mmHg 95%
    02:00 -3°C° 0 mm 2 mps 613 mmHg 95%
    03:00 -3°C° 0 mm 2 mps 613 mmHg 95%
    04:00 -3°C° 0 mm 2 mps 613 mmHg 94%
    05:00 -2°C° 0 mm 2 mps 613 mmHg 93%
    06:00 -1°C° 0 mm 2 mps 614 mmHg 93%
    07:00 +2°C° 0 mm 1 mps 614 mmHg 92%
    08:00 +4°C° 0.1 mm 1 mps 615 mmHg 90%
    09:00 +5°C° 0.1 mm 1 mps 615 mmHg 88%
    10:00 +6°C° 0.1 mm 1 mps 616 mmHg 86%
    11:00 +6°C° 0.4 mm 1 mps 615 mmHg 86%
    12:00 +6°C° 0.4 mm 1 mps 615 mmHg 86%
    13:00 +6°C° 0.4 mm 1 mps 615 mmHg 86%
    14:00 +6°C° 1.1 mm 1 mps 615 mmHg 87%
    15:00 +6°C° 1.1 mm 1 mps 615 mmHg 88%
    16:00 +5°C° 1.1 mm 1 mps 615 mmHg 89%
    17:00 +5°C° 1.6 mm 1 mps 614 mmHg 92%
    18:00 +4°C° 1.6 mm 1 mps 614 mmHg 95%
    19:00 +3°C° 1.6 mm 1 mps 614 mmHg 97%
    20:00 +2°C° 1.1 mm 1 mps 614 mmHg 98%
    21:00 +1°C° 1.1 mm 1 mps 614 mmHg 98%
    22:00 +1°C° 1.1 mm 1 mps 614 mmHg 98%
    23:00 0°C° 0.3 mm 1 mps 613 mmHg 97%

    4 May, Thursday

    Time Temperature Precipitation Wind Pressure Humidity
    00:00 0°C° 0.3 mm 1 mps 613 mmHg 97%
    01:00 -1°C° 0.3 mm 1 mps 612 mmHg 97%
    02:00 -2°C° 0.1 mm 1 mps 612 mmHg 97%
    03:00 -3°C° 0.1 mm 1 mps 611 mmHg 96%
    04:00 -3°C° 0.1 mm 1 mps 611 mmHg 96%
    05:00 -3°C° 0.1 mm 0 mps 611 mmHg 95%
    06:00 -1°C° 0.1 mm 0 mps 612 mmHg 93%
    07:00 +1°C° 0.1 mm 0 mps 613 mmHg 91%
    08:00 +2°C° 0.1 mm 0 mps 613 mmHg 88%
    09:00 +4°C° 0.1 mm 1 mps 614 mmHg 85%
    10:00 +6°C° 0.1 mm 1 mps 614 mmHg 82%
    11:00 +6°C° 0.3 mm 1 mps 614 mmHg 82%
    12:00 +6°C° 0.3 mm 1 mps 614 mmHg 81%
    13:00 +7°C° 0.3 mm 1 mps 614 mmHg 80%
    14:00 +6°C° 0.6 mm 1 mps 614 mmHg 83%
    15:00 +6°C° 0.6 mm 1 mps 614 mmHg 86%
    16:00 +5°C° 0.6 mm 1 mps 613 mmHg 88%
    17:00 +4°C° 0.8 mm 1 mps 613 mmHg 91%
    18:00 +4°C° 0.8 mm 1 mps 613 mmHg 94%
    19:00 +3°C° 0.8 mm 1 mps 613 mmHg 96%
    20:00 +2°C° 0.3 mm 1 mps 613 mmHg 97%
    21:00 +2°C° 0.3 mm 1 mps 613 mmHg 97%
    22:00 +1°C° 0.3 mm 1 mps 613 mmHg 97%
    23:00 0°C° 0 mm 1 mps 613 mmHg 97%
    Show more